Location: Wapato
(46.4478°N, 120.4212°W)
Time: 00:29:01
(UTC+00:00)

ISS - Visible Passes

Search period start: 17 April 2026 00:00
Search period end: 27 April 2026 00:00
Orbit: 416 x 425 km, 51.6° (Epoch: 16 April)

Date Brightness Start Highest point End Pass type
(mag) Time Alt. Az. Time Alt. Az. Time Alt. Az.
19 Apr -1.9 11:57:24 11° SSW 12:00:03 24° SE 12:02:50 10° E visible
20 Apr -1.5 11:12:04 14° SSE 11:12:58 15° SE 11:15:01 10° E visible
21 Apr -3.4 11:59:37 16° SW 12:02:06 57° SSE 12:05:26 10° ENE visible
22 Apr -2.8 11:14:08 32° S 11:14:53 37° SE 11:18:02 10° ENE visible
23 Apr -1.8 10:28:35 21° ESE 10:28:35 21° ESE 10:30:30 10° E visible
23 Apr -3.5 12:01:33 14° WSW 12:04:18 66° NNW 12:07:41 10° ENE visible
24 Apr -3.8 11:15:56 41° WSW 11:16:59 87° SSE 11:20:23 10° ENE visible
25 Apr -3.1 10:30:17 48° ESE 10:30:17 48° ESE 10:33:01 10° ENE visible
25 Apr -2.7 12:03:25 10° W 12:06:38 40° NNW 12:09:52 10° ENE visible
26 Apr -1.2 09:44:35 17° E 09:44:35 17° E 09:45:36 10° ENE visible
26 Apr -3.1 11:17:32 24° W 11:19:13 49° NNW 11:22:31 10° ENE visible
